Orbital Elements at Epoch 2459000.5 (2020-May-31.0) TDB
Reference: JPL 8 (heliocentric ecliptic J2000)
Element | Value | Uncertainty (1-sigma) | Units |
e | .525248989804013 | 2.2045e-07 | |
a | 1.83719165608963 | 3.0927e-09 | au |
q | .8722085946521904 | 4.0404e-07 | au |
i | 1.066165690318429 | 1.3476e-05 | deg |
node | 43.55472864578945 | 0.00036238 | deg |
peri | 210.814115616027 | 0.00034684 | deg |
M | 4.874512988912681 | 1.5992e-05 | deg |
tp | 2458988.184306997122 (2020-May-18.68430700) | 4.0385e-05 | TDB |
period | 909.5574247356519 2.49 | 2.2967e-06 6.288e-09 | d yr |
n | .3957968900145344 | 9.9943e-10 | deg/d |
Q | 2.80217471752707 | 4.7172e-09 | au |
|
| | Orbit Determination Parameters
Additional Information
|